Weather History for Blue Canyon, CA

Change the Weather History Date:

Friday, August 30, 2013

  Actual Average Record
Temperature  
Mean Temperature 72 °F -  
Max Temperature 80 °F 74 °F 90 °F (1950)
Min Temperature 64 °F 56 °F 43 °F (1953)
Cooling Degree Days 6    
Growing Degree Days 22 (Base 50)    
Moisture  
Dew Point 37 °F    
Average Humidity 31    
Maximum Humidity 41    
Minimum Humidity 17    
Precipitation  
Precipitation 0.00 in - - ()
Sea Level Pressure  
Sea Level Pressure 30.22 in    
Wind  
Wind Speed 3 mph (SSE)    
Max Wind Speed 14 mph    
Max Gust Speed 20 mph    
Visibility 7 miles    
Events      
Averages and records for this station are not official NWS values.
T = Trace of Precipitation, MM = Missing Value Source: NWS Daily Summary

Daily Weather History Graph

Daily Weather History Graph

Search for Another Location

Airport:

Trip Planner

Search our weather history database for the weather conditions in past years. The results will help you decide how hot, cold, wet, or windy it might be!

Date:

Astronomy

Aug. 30, 2013 Rise Set
Actual Time 6:29 AM PDT 7:36 PM PDT
Civil Twilight 6:02 AM PDT 8:03 PM PDT
Nautical Twilight 5:29 AM PDT 8:36 PM PDT
Astronomical Twilight 4:55 AM PDT 9:10 PM PDT
Moon 1:13 AM PDT (8/30) 3:54 PM PDT (8/30)
Length of Visible Light 14h 01m
Length of Day
13h 06m
Waning Crescent, 28% of the Moon is Illuminated
Aug 30
Waning Crescent
Sep 5
New
Sep 12
First Quarter
Sep 19
Full
Sep 26
Last Quarter

Hourly Weather History & Observations

Time (PDT) Temp. Dew Point Humidity Pressure Visibility Wind Dir Wind Speed Gust Speed Precip Events Conditions
12:51 AM 64.4 °F 39.2 °F 40% 30.42 in 2.5 mi Calm Calm - N/A   Clear
12:52 AM 64.9 °F 39.9 °F 40% 30.00 in 2.5 mi Calm Calm - N/A   Haze
12:55 AM 64.4 °F 39.2 °F 40% 30.42 in 2.5 mi ENE 3.5 mph - N/A   Clear
1:00 AM 64.4 °F 39.2 °F 40% 30.42 in 1.8 mi East 3.5 mph - N/A   Clear
1:05 AM 64.4 °F 39.2 °F 40% 30.28 in 1.5 mi East 3.5 mph - N/A   Haze
1:32 AM 64.4 °F 39.2 °F 40% 30.42 in 2.0 mi Calm Calm - N/A   Clear
1:37 AM 64.4 °F 39.2 °F 40% 30.27 in 2.5 mi Calm Calm - N/A   Haze
1:46 AM 64.4 °F 39.2 °F 40% 30.42 in 3.0 mi Calm Calm - N/A   Clear
1:52 AM 64.9 °F 39.9 °F 40% 29.99 in 3.0 mi Calm Calm - N/A   Haze
1:55 AM 64.4 °F 39.2 °F 40% 30.42 in 4.0 mi Calm Calm - N/A   Clear
2:52 AM 64.9 °F 39.9 °F 40% 29.98 in 6.0 mi Calm Calm - N/A   Haze
2:55 AM 64.4 °F 39.2 °F 40% 30.42 in 6.0 mi Calm Calm - N/A   Clear
3:52 AM 64.0 °F 39.9 °F 41% 29.98 in 4.0 mi SE 4.6 mph - N/A   Haze
3:55 AM 64.4 °F 39.2 °F 40% 30.42 in 4.0 mi SE 3.5 mph - N/A   Clear
4:52 AM 64.9 °F 39.0 °F 39% 29.97 in 3.0 mi ESE 3.5 mph - N/A   Haze
4:55 AM 64.4 °F 39.2 °F 40% 30.42 in 3.5 mi Calm Calm - N/A   Clear
5:52 AM 64.0 °F 37.0 °F 37% 29.99 in 8.0 mi SE 4.6 mph - N/A   Clear
5:55 AM 64.4 °F 37.4 °F 37% 30.42 in 9.0 mi SE 3.5 mph - N/A   Clear
6:52 AM 64.9 °F 32.0 °F 29% 30.00 in 8.0 mi SE 4.6 mph - N/A   Clear
6:55 AM 64.4 °F 30.2 °F 28% 30.42 in 8.0 mi SE 4.6 mph - N/A   Clear
7:52 AM 66.9 °F 30.9 °F 26% 30.01 in 6.0 mi SE 4.6 mph - N/A   Haze
7:55 AM 66.2 °F 30.2 °F 26% 30.42 in 7.0 mi SE 3.5 mph - N/A   Clear
8:52 AM 70.0 °F 36.0 °F 29% 30.02 in 5.0 mi SSE 5.8 mph - N/A   Haze
8:55 AM 69.8 °F 35.6 °F 28% 30.42 in 5.0 mi SSE 4.6 mph - N/A   Clear
9:52 AM 71.1 °F 37.0 °F 29% 30.02 in 7.0 mi South 6.9 mph - N/A   Clear
9:55 AM 71.6 °F 37.4 °F 29% 30.42 in 8.0 mi SSE 6.9 mph - N/A   Clear
10:52 AM 73.0 °F 37.0 °F 27% 30.02 in 7.0 mi SSE 11.5 mph - N/A   Clear
10:55 AM 73.4 °F 37.4 °F 27% 30.42 in 7.0 mi South 9.2 mph - N/A   Clear
11:52 AM 75.9 °F 28.0 °F 17% 30.00 in 10.0 mi South 9.2 mph - N/A   Clear
11:55 AM 75.2 °F 28.4 °F 18% 30.42 in 10.0 mi South 13.8 mph 19.6 mph N/A   Clear
12:52 PM 78.1 °F 35.1 °F 21% 29.99 in 10.0 mi South 9.2 mph - N/A   Clear
12:55 PM 78.8 °F 35.6 °F 21% 30.42 in 10.0 mi SSE 9.2 mph - N/A   Clear
1:52 PM 79.0 °F 33.1 °F 19% 29.98 in 10.0 mi South 11.5 mph 19.6 mph N/A   Clear
1:55 PM 78.8 °F 33.8 °F 20% 30.42 in 10.0 mi SSW 6.9 mph - N/A   Clear
2:52 PM 79.0 °F 32.0 °F 18% 29.96 in 10.0 mi WSW 8.1 mph - N/A   Clear
2:55 PM 78.8 °F 32.0 °F 18% 30.42 in 10.0 mi SW 10.4 mph - N/A   Clear
3:52 PM 79.0 °F 37.0 °F 22% 29.95 in 10.0 mi South 10.4 mph - N/A   Clear
3:55 PM 78.8 °F 37.4 °F 23% 30.42 in 10.0 mi South 9.2 mph - N/A   Clear
4:52 PM 78.1 °F 37.0 °F 23% 29.94 in 10.0 mi South 9.2 mph - N/A   Clear
4:55 PM 78.8 °F 37.4 °F 23% 30.42 in 10.0 mi South 6.9 mph - N/A   Clear
5:52 PM 77.0 °F 37.9 °F 24% 29.94 in 10.0 mi Variable 5.8 mph - N/A   Clear
5:55 PM 77.0 °F 37.4 °F 24% 30.42 in 10.0 mi Variable 5.8 mph - N/A   Clear
6:52 PM 75.0 °F 37.9 °F 26% 29.94 in 10.0 mi Variable 3.5 mph - N/A   Clear
6:55 PM 73.4 °F 39.2 °F 29% 30.42 in 10.0 mi SW 5.8 mph - N/A   Clear
7:52 PM 71.1 °F 37.9 °F 30% 29.95 in 10.0 mi Calm Calm - N/A   Clear
7:55 PM 71.6 °F 37.4 °F 29% 30.42 in 10.0 mi Calm Calm - N/A   Clear
8:52 PM 70.0 °F 37.0 °F 30% 29.95 in 10.0 mi Calm Calm - N/A   Clear
8:55 PM 69.8 °F 37.4 °F 31% 30.42 in 10.0 mi Calm Calm - N/A   Clear
9:52 PM 69.1 °F 37.9 °F 32% 29.95 in 10.0 mi Calm Calm - N/A   Clear
9:55 PM 69.8 °F 37.4 °F 31% 30.42 in 10.0 mi Calm Calm - N/A   Clear
10:52 PM 69.1 °F 37.9 °F 32% 29.94 in 10.0 mi Calm Calm - N/A   Clear
10:55 PM 69.8 °F 37.4 °F 31% 30.42 in 10.0 mi NE 3.5 mph - N/A   Clear
11:52 PM 68.0 °F 37.9 °F 33% 29.93 in 10.0 mi Calm Calm - N/A   Clear
11:55 PM 68.0 °F 37.4 °F 33% 30.42 in 10.0 mi Calm Calm - N/A   Clear